When you browse on this site, cookies collect data to enhance your experience and personalize the content and advertising you see.
Visit our Privacy Policy to learn more. By continuing to use the site, you agree to this use of cookies and data.
  • In Schweiz
  • Länderverzeichnis
  • Für 7 Tage
  • Wassertemperatur
  • Wetterkarte
  • Widgets
  • user-avatar
    Anmelden

    Stündliche Wetter Amvrosiewka

    Heute, 22 Februar, Samstag

    Zeit Temperatur Niederschläge Wind Luftdruck Luftfeuchtigkeit
    00:00 0°C° 0 mm 3 m/S 750 mmHg 98%
    01:00 0°C° 0.1 mm 3 m/S 750 mmHg 98%
    02:00 -1°C° 0.1 mm 4 m/S 750 mmHg 98%
    03:00 0°C° 0 mm 3 m/S 750 mmHg 98%
    04:00 0°C° 0.2 mm 3 m/S 751 mmHg 98%
    05:00 0°C° 0.2 mm 3 m/S 751 mmHg 98%
    06:00 0°C° 0.2 mm 3 m/S 751 mmHg 99%
    07:00 0°C° 0.1 mm 3 m/S 751 mmHg 99%
    08:00 0°C° 0.1 mm 3 m/S 752 mmHg 99%
    09:00 0°C° 0 mm 3 m/S 752 mmHg 99%
    10:00 0°C° 0.4 mm 3 m/S 752 mmHg 99%
    11:00 0°C° 0.4 mm 3 m/S 752 mmHg 99%
    12:00 0°C° 0.4 mm 3 m/S 752 mmHg 99%
    13:00 0°C° 0.5 mm 3 m/S 752 mmHg 99%
    14:00 -1°C° 0.5 mm 3 m/S 752 mmHg 99%
    15:00 -1°C° 0.5 mm 3 m/S 752 mmHg 99%
    16:00 -1°C° 0.8 mm 3 m/S 752 mmHg 99%
    17:00 -1°C° 0.8 mm 3 m/S 752 mmHg 99%
    18:00 -1°C° 0.8 mm 3 m/S 752 mmHg 99%
    19:00 -1°C° 0.3 mm 2 m/S 752 mmHg 99%
    20:00 -1°C° 0.3 mm 2 m/S 752 mmHg 99%
    21:00 -1°C° 0.3 mm 2 m/S 752 mmHg 99%
    22:00 -1°C° 0.1 mm 2 m/S 752 mmHg 99%
    23:00 +1°C° 0.1 mm 2 m/S 752 mmHg 99%

    Morgen, 23 Februar, Sonntag

    Zeit Temperatur Niederschläge Wind Luftdruck Luftfeuchtigkeit
    00:00 +1°C° 0.1 mm 2 m/S 751 mmHg 99%
    01:00 +1°C° 0 mm 2 m/S 751 mmHg 98%
    02:00 +1°C° 0 mm 2 m/S 751 mmHg 98%
    03:00 +2°C° 0 mm 1 m/S 751 mmHg 98%
    04:00 -1°C° 0 mm 2 m/S 751 mmHg 98%
    05:00 -1°C° 0 mm 2 m/S 750 mmHg 98%
    06:00 -1°C° 0 mm 2 m/S 750 mmHg 98%
    07:00 -1°C° 0 mm 2 m/S 750 mmHg 98%
    08:00 -1°C° 0 mm 2 m/S 750 mmHg 98%
    09:00 -1°C° 0 mm 2 m/S 750 mmHg 98%
    10:00 0°C° 0 mm 3 m/S 750 mmHg 97%
    11:00 -1°C° 0 mm 4 m/S 750 mmHg 96%
    12:00 -1°C° 0 mm 5 m/S 749 mmHg 96%
    13:00 -1°C° 0 mm 5 m/S 749 mmHg 93%
    14:00 0°C° 0 mm 5 m/S 748 mmHg 91%
    15:00 0°C° 0 mm 5 m/S 748 mmHg 89%
    16:00 -1°C° 0 mm 6 m/S 747 mmHg 88%
    17:00 -1°C° 0 mm 6 m/S 746 mmHg 87%
    18:00 -1°C° 0 mm 6 m/S 746 mmHg 87%
    19:00 -1°C° 0.1 mm 7 m/S 746 mmHg 88%
    20:00 -1°C° 0.1 mm 7 m/S 745 mmHg 90%
    21:00 -1°C° 0.1 mm 7 m/S 745 mmHg 92%
    22:00 -1°C° 0 mm 7 m/S 744 mmHg 91%
    23:00 -1°C° 0 mm 8 m/S 744 mmHg 90%

    übermorgen, 24 Februar, Montag

    Zeit Temperatur Niederschläge Wind Luftdruck Luftfeuchtigkeit
    00:00 0°C° 0 mm 8 m/S 743 mmHg 88%
    01:00 -1°C° 0 mm 7 m/S 743 mmHg 89%
    02:00 -1°C° 0 mm 7 m/S 743 mmHg 90%
    03:00 -1°C° 0 mm 7 m/S 742 mmHg 91%
    04:00 -1°C° 0 mm 6 m/S 742 mmHg 92%
    05:00 -1°C° 0 mm 6 m/S 741 mmHg 94%
    06:00 -1°C° 0 mm 6 m/S 740 mmHg 95%
    07:00 -1°C° 0 mm 7 m/S 740 mmHg 94%
    08:00 0°C° 0 mm 8 m/S 739 mmHg 92%
    09:00 0°C° 0 mm 8 m/S 738 mmHg 91%
    10:00 0°C° 0.5 mm 9 m/S 737 mmHg 93%
    11:00 0°C° 0.5 mm 10 m/S 736 mmHg 95%
    12:00 0°C° 0.5 mm 10 m/S 734 mmHg 96%
    13:00 -1°C° 1.2 mm 11 m/S 733 mmHg 96%
    14:00 -1°C° 1.2 mm 11 m/S 731 mmHg 96%
    15:00 -1°C° 1.2 mm 11 m/S 730 mmHg 96%
    16:00 0°C° 1.1 mm 10 m/S 729 mmHg 96%
    17:00 +1°C° 1.1 mm 9 m/S 728 mmHg 95%
    18:00 +2°C° 1.1 mm 7 m/S 727 mmHg 95%
    19:00 0°C° 0.5 mm 7 m/S 728 mmHg 94%
    20:00 +1°C° 0.5 mm 6 m/S 728 mmHg 92%
    21:00 0°C° 0.5 mm 5 m/S 728 mmHg 91%
    22:00 -2°C° 1.4 mm 7 m/S 729 mmHg 93%
    23:00 -3°C° 1.4 mm 9 m/S 730 mmHg 94%

    25 Februar, Dienstag

    Zeit Temperatur Niederschläge Wind Luftdruck Luftfeuchtigkeit
    00:00 -3°C° 1.4 mm 12 m/S 731 mmHg 96%
    01:00 -3°C° 0.5 mm 12 m/S 732 mmHg 91%
    02:00 -3°C° 0.5 mm 12 m/S 734 mmHg 85%
    03:00 -3°C° 0.5 mm 12 m/S 736 mmHg 80%
    04:00 -3°C° 0 mm 11 m/S 737 mmHg 79%
    05:00 -4°C° 0 mm 10 m/S 739 mmHg 78%
    06:00 -4°C° 0 mm 9 m/S 741 mmHg 77%
    07:00 -4°C° 0 mm 9 m/S 742 mmHg 76%
    08:00 -4°C° 0 mm 8 m/S 743 mmHg 75%
    09:00 -5°C° 0 mm 8 m/S 745 mmHg 73%
    10:00 -4°C° 0 mm 8 m/S 745 mmHg 71%
    11:00 -2°C° 0 mm 7 m/S 746 mmHg 69%
    12:00 -1°C° 0 mm 7 m/S 746 mmHg 66%
    13:00 +1°C° 0 mm 6 m/S 747 mmHg 64%
    14:00 +1°C° 0 mm 6 m/S 747 mmHg 63%
    15:00 +2°C° 0 mm 6 m/S 747 mmHg 61%
    16:00 +1°C° 0 mm 5 m/S 747 mmHg 64%
    17:00 +1°C° 0 mm 4 m/S 747 mmHg 67%
    18:00 +1°C° 0 mm 3 m/S 747 mmHg 71%
    19:00 +1°C° 0 mm 3 m/S 747 mmHg 73%
    20:00 0°C° 0 mm 3 m/S 747 mmHg 76%
    21:00 0°C° 0 mm 3 m/S 747 mmHg 79%
    22:00 0°C° 0 mm 3 m/S 747 mmHg 81%
    23:00 -1°C° 0 mm 4 m/S 747 mmHg 82%

    26 Februar, Mittwoch

    Zeit Temperatur Niederschläge Wind Luftdruck Luftfeuchtigkeit
    00:00 -1°C° 0 mm 4 m/S 747 mmHg 84%
    01:00 -1°C° 0 mm 4 m/S 746 mmHg 85%
    02:00 -1°C° 0 mm 5 m/S 746 mmHg 86%
    03:00 -1°C° 0 mm 5 m/S 746 mmHg 87%
    04:00 -1°C° 0 mm 5 m/S 745 mmHg 88%
    05:00 -1°C° 0 mm 5 m/S 745 mmHg 89%
    06:00 -1°C° 0 mm 5 m/S 745 mmHg 90%
    07:00 0°C° 0 mm 5 m/S 745 mmHg 89%
    08:00 -1°C° 0 mm 6 m/S 745 mmHg 87%
    09:00 +1°C° 0 mm 6 m/S 744 mmHg 86%
    10:00 +2°C° 0 mm 7 m/S 744 mmHg 81%
    11:00 +3°C° 0 mm 7 m/S 744 mmHg 76%
    12:00 +4°C° 0 mm 8 m/S 744 mmHg 71%
    13:00 +4°C° 0 mm 8 m/S 743 mmHg 68%
    14:00 +5°C° 0 mm 8 m/S 743 mmHg 66%
    15:00 +5°C° 0 mm 9 m/S 743 mmHg 63%
    16:00 +4°C° 0 mm 8 m/S 742 mmHg 65%
    17:00 +4°C° 0 mm 7 m/S 742 mmHg 66%
    18:00 +3°C° 0 mm 7 m/S 742 mmHg 68%
    19:00 +3°C° 0 mm 6 m/S 742 mmHg 71%
    20:00 +2°C° 0 mm 5 m/S 742 mmHg 74%
    21:00 +2°C° 0 mm 5 m/S 742 mmHg 77%
    22:00 +1°C° 0 mm 5 m/S 741 mmHg 75%
    23:00 +1°C° 0 mm 5 m/S 741 mmHg 74%

    27 Februar, Donnerstag

    Zeit Temperatur Niederschläge Wind Luftdruck Luftfeuchtigkeit
    00:00 +1°C° 0 mm 4 m/S 741 mmHg 72%
    01:00 +1°C° 0 mm 4 m/S 741 mmHg 72%
    02:00 0°C° 0 mm 4 m/S 740 mmHg 72%
    03:00 0°C° 0 mm 4 m/S 740 mmHg 72%
    04:00 0°C° 0 mm 4 m/S 740 mmHg 75%
    05:00 0°C° 0 mm 4 m/S 740 mmHg 78%
    06:00 0°C° 0 mm 4 m/S 739 mmHg 80%
    07:00 +1°C° 0 mm 4 m/S 739 mmHg 80%
    08:00 +3°C° 0 mm 4 m/S 739 mmHg 80%
    09:00 +2°C° 0 mm 5 m/S 739 mmHg 80%
    10:00 +5°C° 0 mm 5 m/S 740 mmHg 75%
    11:00 +6°C° 0 mm 5 m/S 740 mmHg 70%
    12:00 +7°C° 0 mm 5 m/S 740 mmHg 65%
    13:00 +8°C° 0 mm 5 m/S 739 mmHg 63%
    14:00 +8°C° 0 mm 6 m/S 739 mmHg 61%
    15:00 +9°C° 0 mm 7 m/S 739 mmHg 59%
    16:00 +8°C° 0 mm 6 m/S 739 mmHg 65%
    17:00 +7°C° 0 mm 5 m/S 739 mmHg 71%
    18:00 +6°C° 0 mm 5 m/S 739 mmHg 76%
    19:00 +6°C° 0 mm 4 m/S 739 mmHg 80%
    20:00 +5°C° 0 mm 4 m/S 740 mmHg 85%
    21:00 +4°C° 0 mm 3 m/S 740 mmHg 89%
    22:00 +4°C° 0 mm 3 m/S 740 mmHg 90%
    23:00 +4°C° 0 mm 3 m/S 740 mmHg 91%
    Mehr zeigen